Presure
142 163 131 147 155 181 197 199 191 186 186 181 179 175 169 170 175 193 195 172 184 193 203 219 203 187 208 178 186 199 204 203 197 190 194 208 190 197 175 184 197 197 196 194 231 222 199
143 181 195 181 203 198 156 162 154 226 230 224 207 197 194 185 188 196 195 195 215 216 185 165 162 200 203 186 207 180 189 188 185 189 184 177 173 204 199 184 170 185 179 190 205 215 226
150 166 185 161 202 171 210 225 209 159 158 138 152 148 145 151 160 162 154 152 171 189 141 144 183 190 189 188 192 189 181 154 167 173 176 191 170 199 189 172 182 169 173 213 213 220 202
185 192 185 204 207 131 122 188 188 181 188 187 185 186 195 197 202 210 205 198 144 144 195 148 191 172 187 188 183 184 201 190 177 182 184 182 182 183 195 189 189 208 163 158 194 208 180
166 176 166 163 162 162 195 197 180 198 159 182 191 183 209 197 193 182 183 177 173 194 192 181 179 172 175 180 181 183 189 177 195 197 203 207 201 195 196 195 196 208 207 170 193 191 210
160 160 162 157 159 154 138 189 170 183 179 184 161 200 176 181 195 200 189 190 183 166 170 177 176 178 185 184 190 189 187 182 187 192 182 198 192 194 199 194 198 198 196 196 190 231 214
176 172 153 161 147 149 155 164 163 154 159 159 175 163 181 128 196 198 168 190 179 177 177 172 185 170 185 161 164 173 168 169 169 172 174 187 191 189 192 191 184 190 193 193 193 193 206
152 175 162 157 160 153 151 150 151 158 172 162 159 167 180 171 193 185 182 179 167 176 179 178 180 176 180 188 170 171 180 187 189 183 184 186 189 199 192 194 187 197 183 187 194 186 210
158 169 151 160 175 155 148 150 153 157 159 149 164 171 193 156 156 179 180 170 176 176 180 179 178 175 180 183 180 187 185 184 184 189 185 188 187 187 196 194 199 190 204 184 178 204 200
145 154 159 151 155 144 157 196 170 167 170 162 153 157 151 175 173 159 188 179 192 196 195 197 203 200 189 183 180 180 179 180 180 190 187 185 187 207 194 190 191 203 196 204 207 213 205
169 127 165 164 167 163 149 171 154 163 144 157 193 152 178 152 186 180 165 144 198 199 202 186 185 166 181 182 184 178 181 187 192 194 195 200 196 185 183 182 188 188 214 197 214 212 211
173 147 167 136 160 163 174 161 164 158 170 143 161 164 143 162 169 184 191 172 195 162 199 208 193 195 203 200 192 193 192 194 200 196 182 186 195 194 187 197 183 183 182 211 214 208 189
143 138 144 154 174 166 153 161 139 166 171 174 178 186 157 150 145 180 192 182 172 191 180 209 191 225 205 196 197 203 200 202 189 194 194 185 201 195 183 193 201 188 189 182 194 172 206
155 147 168 156 152 164 167 172 169 159 164 153 154 164 163 157 152 159 168 188 185 180 194 202 154 182 151 207 207 221 184 193 205 215 200 201 184 214 202 190 205 205 213 202 196 165 206
155 156 165 170 164 151 167 151 144 175 143 152 156 179 180 142 174 174 182 187 181 188 193 172 192 175 225 191 198 183 220 196 205 196 208 197 195 169 206 205 193 216 211 202 191 195 206
142 168 155 155 153 153 167 150 160 164 140 148 164 182 145 179 175 194 177 190 173 181 186 195 176 195 185 205 185 205 207 187 166 193 208 206 203 212 211 199 170 203 200 188 203 204 206
159 136 142 170 159 144 165 166 177 160 160 183 175 153 157 162 158 143 177 146 172 186 188 167 177 195 167 191 197 209 211 197 206 197 200 211 202 196 212 213 205 199 182 193 199 220 99
155 158 160 160 141 174 153 158 155 169 164 137 159 179 145 177 142 154 164 188 188 188 182 177 192 187 204 189 195 202 178 166 203 212 162 203 204 207 204 195 187 211 191 205 209 242 248
160 154 154 162 155 155 163 170 166 145 157 160 171 155 126 185 154 179 156 165 180 191 188 171 188 189 189 194 194 185 199 197 208 214 187 202 211 207 203 210 188 196 234 203 244 264 261
175 152 145 164 138 165 153 172 157 154 164 175 177 143 171 180 172 173 183 179 180 178 184 180 188 181 185 192 197 206 204 207 197 212 173 212 206 209 208 196 226 211 201 238 118 257 271
159 142 158 148 161 152 163 151 154 152 172 164 172 163 169 175 176 146 181 167 181 186 168 190 179 186 186 189 193 204 201 193 223 206 199 191 204 202 212 205 205 203 244 255 259 274 317
172 164 147 141 166 162 148 141 154 181 151 185 169 127 171 150 172 130 142 179 186 165 181 179 192 196 195 187 207 189 216 221 204 192 180 192 184 215 221 216 198 211 269 257 286 442 447
171 168 170 154 158 154 167 132 156 162 167 161 161 166 166 156 171 130 157 170 180 180 179 194 182 201 192 199 191 209 206 207 187 206 186 201 208 217 215 214 211 257 272 320 446 426 414
178 168 171 173 148 125 156 148 160 169 168 143 163 145 172 165 169 146 170 178 177 180 183 188 178 193 213 207 205 223 208 209 201 195 214 218 199 207 224 209 257 267 341 435 425 409 395
190 142 177 175 134 168 178 170 157 169 154 157 172 172 159 164 167 160 175 180 174 185 187 187 205 193 203 192 218 224 196 197 199 208 203 223 215 222 210 258 263 441 406 419 405 397 393
185 128 158 187 167 165 161 160 176 157 144 159 156 162 159 154 157 176 175 177 187 184 191 149 188 206 210 236 170 189 213 225 203 194 211 207 213 210 257 267 440 429 413 401 387 388 382
177 161 172 188 164 161 181 149 165 177 171 168 143 187 169 176 172 176 168 195 192 189 192 198 204 212 234 209 209 232 194 199 209 194 214 213 241 253 330 428 423 413 402 383 385 364 360
161 184 144 183 151 165 160 161 165 173 177 148 171 167 184 180 175 181 175 194 183 195 198 201 200 220 204 191 213 203 187 197 204 215 223 247 251 350 432 427 413 403 397 376 361 354 354
180 130 173 169 183 148 184 184 186 153 177 140 174 174 181 187 159 182 184 182 152 203 204 219 214 194 220 202 205 220 217 201 207 233 208 265 406 390 432 416 399 399 369 384 354 348 335
Wind_Speed
19 10 21 14 13 23 31 33 32 33 34 33 32 31 28 28 33 36 34 33 33 33 31 24 28 32 25 32 26 22 19 21 27 31 30 24 34 31 39 38 34 38 41 45 34 39 45
19 11 11 12 15 18 18 19 18 20 21 24 29 33 37 35 34 32 31 32 27 22 29 31 32 26 27 33 27 31 30 31 30 29 34 37 40 29 30 42 47 44 49 46 45 38 38
16 15 11 20 9 16 10 9 13 21 22 23 24 24 25 26 26 27 28 29 33 29 32 34 33 30 30 31 32 32 36 41 41 40 40 35 43 37 36 48 44 51 51 38 40 40 44
15 12 12 16 14 18 23 13 15 17 17 20 23 24 20 18 18 16 17 20 29 31 27 32 29 38 33 33 36 37 37 40 39 41 43 40 42 41 45 43 46 46 57 53 47 43 55
11 17 9 12 14 19 16 15 18 13 18 18 18 23 14 19 22 25 26 30 31 25 28 35 37 40 41 41 41 42 40 43 40 42 43 41 44 47 46 47 48 47 49 49 50 45 49
15 14 12 15 16 21 26 20 20 17 19 20 30 19 24 21 18 14 21 26 31 36 39 39 40 41 41 42 41 43 44 46 47 46 50 47 49 50 49 49 50 53 53 55 52 47 55
15 18 22 16 25 23 21 25 25 24 25 27 25 31 23 33 19 17 32 24 31 34 38 42 42 47 47 50 50 52 52 52 52 54 55 54 56 58 57 55 56 57 57 59 60 55 61
19 21 19 22 20 26 25 25 26 27 29 34 30 31 24 30 23 26 28 30 38 38 40 45 46 47 50 50 52 55 54 54 53 57 57 60 62 62 62 62 62 64 62 63 66 54 59
27 24 27 19 24 28 33 30 28 31 31 36 35 34 25 38 40 32 30 43 40 42 43 48 50 52 54 54 53 55 57 59 59 59 62 63 65 67 67 68 68 68 72 69 59 73 66
33 21 28 31 26 36 28 33 32 25 26 34 38 36 41 37 38 45 35 39 39 40 41 46 47 48 50 53 56 58 61 64 66 68 68 69 70 69 68 73 73 71 78 77 74 71 72
36 41 33 35 38 38 36 31 34 31 44 36 39 42 39 45 37 42 48 58 35 35 41 43 46 57 54 57 60 62 64 66 67 66 68 68 68 72 75 78 80 84 67 84 75 77 76
33 36 40 40 37 42 44 38 38 38 38 45 37 42 50 42 49 41 46 47 39 54 40 41 44 50 53 56 60 64 64 65 63 66 69 73 70 70 79 76 85 84 84 75 76 81 54
40 43 37 39 41 38 42 44 40 40 47 50 50 54 50 51 57 52 53 50 46 46 52 52 43 51 49 49 50 53 57 58 66 62 66 74 64 73 85 80 79 94 96 82 87 63 81
46 39 43 46 42 48 44 49 48 44 48 44 47 56 53 51 55 58 52 59 55 54 55 58 50 46 55 42 51 51 54 54 63 64 63 63 78 71 68 82 77 83 83 92 99 62 89
52 53 51 50 53 43 55 41 41 51 49 47 54 60 62 57 62 62 62 59 56 56 57 55 61 51 63 53 57 57 66 60 68 67 74 70 72 66 70 76 91 85 85 91 98 95 97
47 54 55 58 53 48 54 47 52 54 48 50 59 63 56 67 65 69 60 66 60 60 62 72 62 77 59 64 60 75 76 67 66 78 80 74 75 78 81 85 69 88 90 97 103 106 108
64 50 48 64 62 44 66 61 65 63 58 61 66 60 66 66 66 65 70 60 66 72 67 73 69 82 77 76 72 82 80 76 77 74 75 82 79 81 86 89 89 91 96 95 101 112 36
69 69 65 65 51 64 61 65 63 71 66 57 63 72 58 73 65 68 72 75 77 77 70 69 88 80 87 78 81 90 75 79 83 91 79 81 84 87 90 91 94 104 98 101 110 126 129
71 67 68 67 70 58 67 69 73 60 68 72 82 65 53 74 66 76 73 70 80 84 81 70 88 89 84 94 93 86 88 91 91 94 93 84 94 93 95 103 98 101 123 107 134 131 128
72 68 62 76 55 77 68 76 64 65 75 86 82 62 84 82 80 76 85 85 84 81 86 85 91 81 85 99 103 98 95 90 83 86 94 99 98 103 105 104 121 110 109 135 41 133 138
82 65 80 62 85 67 83 69 72 59 91 79 87 84 74 88 86 67 86 79 91 94 71 101 85 97 97 94 103 102 96 87 93 90 92 99 106 107 111 109 107 108 134 134 137 141 135
87 87 74 67 91 89 68 52 82 88 68 90 94 56 89 64 88 49 71 91 96 71 97 90 102 107 110 94 104 87 109 96 90 93 101 99 101 117 122 120 106 116 140 134 140 70 61
85 90 90 82 76 84 94 59 84 72 97 80 80 92 85 60 93 51 77 91 97 93 89 108 90 109 108 108 93 109 97 89 99 106 99 111 110 123 119 120 118 133 146 129 58 58 56
94 76 98 95 78 53 75 81 84 92 89 62 95 63 98 83 91 69 101 103 102 99 100 104 91 112 103 114 108 102 92 102 99 104 121 122 111 118 128 118 139 147 125 53 51 54 53
104 68 100 91 52 90 91 92 82 87 80 78 103 101 72 90 96 88 109 110 98 109 109 102 114 111 109 97 110 108 93 97 106 112 112 132 126 127 122 145 147 60 64 50 51 48 44
116 60 83 106 92 91 90 85 93 80 52 66 86 90 80 66 83 110 110 108 114 113 115 74 109 116 118 111 96 96 113 113 109 104 115 116 122 118 146 142 55 50 49 51 51 44 42
125 97 102 106 85 88 107 74 92 94 102 96 64 110 102 112 110 113 96 119 120 108 116 117 120 118 106 104 104 118 106 108 121 110 122 122 134 142 120 56 52 46 46 49 44 45 42
100 118 61 110 89 89 87 82 95 108 110 78 108 87 110 115 104 112 107 117 110 119 119 120 114 110 95 95 116 102 106 113 117 124 132 145 146 106 51 48 47 42 42 42 40 43 38
130 40 123 117 110 59 119 111 115 55 114 65 109 111 119 117 77 114 117 104 75 124 114 117 117 85 122 96 103 123 130 115 118 136 118 152 75 77 44 46 41 38 38 29 37 36 35
Wind_Direction
286 279 288 277 284 280 270 267 270 273 275 275 280 282 288 294 297 291 290 291 294 301 304 308 307 305 303 294 301 309 312 313 292 291 283 301 285 279 268 273 270 268 265 267 283 275 270
277 305 310 308 296 286 294 284 301 279 281 277 275 279 281 288 289 291 293 296 301 307 300 295 296 298 300 296 328 291 290 290 287 287 274 278 279 301 281 267 271 269 271 274 273 276 284
263 305 322 300 318 305 314 305 296 298 299 289 297 295 297 300 299 297 294 293 297 299 290 292 296 299 299 301 311 305 293 284 283 281 280 299 278 303 283 272 276 273 274 289 287 293 277
6 4 349 27 13 295 286 321 318 310 312 302 296 295 296 299 298 299 307 309 286 287 304 291 306 298 308 308 302 302 313 306 289 298 300 294 291 290 298 286 288 300 274 274 289 287 277
316 356 312 304 307 315 14 11 330 356 308 319 315 307 331 302 303 305 300 300 300 310 308 298 299 299 295 299 301 303 308 296 307 307 308 307 304 300 300 299 295 301 301 283 288 276 292
294 289 308 296 305 294 287 355 332 344 335 339 304 331 312 318 329 325 312 316 304 302 298 305 305 304 306 304 306 305 301 301 302 306 300 308 301 302 302 298 300 298 297 296 282 295 295
306 302 283 306 278 285 299 329 324 298 307 300 332 298 303 289 329 328 310 324 311 306 304 297 308 298 306 300 302 300 300 301 300 299 297 301 300 297 298 296 293 294 294 292 294 291 298
273 311 282 280 281 283 286 286 296 306 316 312 306 310 326 325 327 322 321 312 304 304 302 300 299 297 299 299 300 298 298 300 301 297 297 296 297 300 298 297 293 293 290 292 293 292 290
288 304 276 284 299 278 283 286 291 296 299 295 308 315 336 306 308 319 309 312 306 303 294 292 294 297 295 297 298 299 298 298 299 299 296 296 297 299 300 298 299 295 294 293 294 294 296
266 276 291 270 267 277 285 319 301 306 306 293 299 303 303 326 320 304 301 304 297 294 289 294 300 299 295 293 294 296 297 299 297 299 297 299 299 297 297 296 296 295 295 292 293 291 289
295 281 302 309 300 301 282 308 278 297 289 295 328 300 326 301 326 321 308 302 309 311 300 292 294 298 293 292 293 295 296 294 293 294 296 297 295 295 295 295 295 294 299 294 294 292 293
280 271 299 285 297 297 301 296 293 280 304 288 303 309 294 312 313 320 322 310 317 302 323 313 296 297 299 294 291 292 294 296 299 296 294 294 295 294 292 294 294 296 297 298 303 292 293
280 280 271 294 292 291 284 292 289 300 305 308 310 312 295 293 297 319 323 320 298 316 314 334 319 321 303 297 299 297 296 300 296 294 291 293 297 293 293 292 294 292 295 299 296 293 296
280 274 280 290 291 294 293 297 299 298 303 293 297 306 307 300 302 310 312 317 314 302 326 331 304 311 306 307 327 315 298 302 312 312 296 296 290 311 291 294 296 294 304 294 293 278 295
277 280 284 284 286 281 292 284 280 295 285 292 304 306 308 290 304 306 311 314 313 312 326 299 328 298 317 298 320 290 324 314 316 300 315 295 293 305 304 303 290 313 307 295 300 299 297
268 276 280 285 287 285 288 286 286 292 285 294 304 301 289 306 304 306 309 313 306 310 314 324 303 325 319 319 298 327 328 301 309 314 316 312 305 314 315 301 297 303 300 299 305 301 300
274 267 274 279 282 275 287 285 287 293 296 295 296 296 300 304 304 299 310 303 304 315 321 306 311 323 312 323 324 327 324 318 316 311 312 315 306 299 313 310 303 299 299 303 301 310 292
275 271 276 281 271 278 279 288 291 290 293 284 298 297 292 301 292 301 306 314 317 316 314 310 322 319 326 321 323 326 293 311 318 314 308 313 312 317 308 300 302 309 306 304 306 312 311
266 272 277 274 281 275 284 281 284 283 294 295 296 297 292 305 296 306 302 307 313 318 315 304 321 322 319 325 323 313 321 315 318 314 302 314 317 315 310 311 303 304 314 305 313 313 313
262 269 276 276 276 281 283 284 279 293 288 290 292 290 300 301 303 306 309 309 312 313 315 316 319 315 316 321 322 321 318 318 316 310 303 319 317 315 314 307 316 309 307 314 295 314 311
270 275 275 271 279 279 282 284 290 287 288 291 292 298 297 304 304 288 307 310 313 313 305 313 312 316 317 317 317 320 318 310 311 314 315 310 316 312 313 308 308 308 313 314 315 312 304
259 267 277 281 272 278 282 275 289 283 279 290 295 290 296 291 299 300 290 312 311 297 312 312 313 316 317 314 316 310 314 314 317 302 302 306 306 314 316 312 309 309 314 315 311 297 295
262 266 264 270 267 278 280 272 290 282 291 285 300 298 296 296 306 298 308 313 309 304 310 311 310 314 315 316 313 314 313 319 305 316 309 310 309 314 312 310 310 317 316 309 299 300 302
273 264 263 264 278 274 275 282 284 284 285 287 298 281 299 301 300 294 309 307 306 305 307 308 309 312 311 314 313 311 316 314 313 307 318 315 309 311 311 311 319 316 308 303 303 302 304
269 268 270 270 267 270 271 275 282 282 279 292 290 293 293 302 300 300 303 303 303 305 307 308 309 311 311 311 315 319 310 309 310 316 309 316 312 311 310 318 317 307 310 306 306 305 304
268 271 275 273 278 272 275 280 275 286 280 293 292 296 299 300 303 298 302 304 301 304 305 306 308 310 311 313 306 307 318 313 310 308 311 312 311 311 317 316 307 309 307 307 307 309 303
266 276 275 270 269 281 277 273 283 278 282 284 282 284 292 291 295 298 304 297 299 301 303 302 308 310 312 316 314 310 304 311 315 310 313 311 315 316 315 309 308 311 306 307 308 306 311
263 266 267 269 276 274 278 272 285 281 281 287 286 291 288 289 296 295 300 298 300 300 300 306 307 311 314 306 312 309 304 308 313 314 314 316 317 313 307 307 310 305 307 304 304 305 314
260 248 271 274 266 272 272 273 275 283 282 283 288 289 287 288 298 295 297 301 304 298 304 305 308 303 311 311 309 314 318 309 312 314 311 316 308 312 306 304 309 302 304 301 298 307 311